Temp
9 10 10 9 10 9 9 9 9 9 9 10 9 10 9 9 9 9 10 9 10 10 10 10 9 10 9 9 9 9 12 14 15 13 15 22 25 25 25 25 24 23 23 23 23 23 22 23 23 23 23 24 25 25 25 25 25 24 24 23 23 24 24 25 25 25 25 24 23 23 24 25 24 24 24 24 24 24 24 24 24 25 25 25 24 23 23 22
10 10 10 9 10 9 10 9 9 9 9 9 9 9 9 9 9 9 9 9 9 10 10 10 10 10 9 10 9 10 12 13 13 14 19 26 26 25 25 25 24 23 23 22 23 23 23 23 23 24 24 24 25 25 25 25 25 25 24 24 24 25 25 25 25 25 25 24 23 23 24 25 24 24 24 24 24 24 24 23 24 24 23 24 23 23 23 22
10 10 9 9 9 9 10 10 9 9 9 9 9 9 9 9 9 9 9 9 9 9 9 9 10 9 10 10 10 12 13 12 16 21 24 26 26 26 25 24 24 23 24 24 24 24 24 24 24 24 25 24 24 25 25 25 25 25 25 24 25 26 25 25 25 25 25 24 23 23 24 24 24 24 25 24 24 24 24 24 24 23 23 23 23 23 23 23
10 10 10 10 9 9 9 9 9 9 9 9 9 9 9 10 10 10 10 9 9 9 9 9 9 9 10 10 11 13 12 15 23 26 25 25 26 27 26 24 24 22 23 24 24 25 25 24 24 25 25 24 24 25 25 25 25 25 25 25 26 25 24 25 25 24 24 24 24 24 24 24 24 25 25 24 25 24 24 25 25 24 23 23 23 24 23 23
11 12 12 11 10 10 9 9 9 9 9 9 9 10 10 11 12 12 10 10 9 9 9 10 9 9 10 11 13 12 14 21 26 25 24 25 25 26 26 24 24 23 22 23 24 24 24 24 25 25 25 25 24 24 25 25 25 25 25 26 26 25 24 24 24 24 24 24 24 24 24 24 25 25 25 25 25 25 24 25 25 24 24 24 24 24 24 23
13 13 13 12 11 11 10 10 10 10 10 11 12 13 14 14 14 13 11 11 10 9 9 10 9 9 10 13 14 13 17 25 25 24 25 25 25 26 25 24 24 23 22 23 23 24 24 24 25 25 25 25 24 24 25 26 25 25 26 27 26 26 24 24 24 24 24 24 24 24 25 25 25 24 25 25 25 25 25 25 25 25 25 24 24 24 24 24
14 14 14 13 12 12 12 12 12 12 13 14 15 16 16 16 16 14 13 13 12 10 9 9 9 9 11 13 14 14 18 24 24 24 25 25 26 26 24 24 23 22 22 24 24 24 25 24 25 26 26 25 24 25 26 26 26 25 26 27 26 25 24 25 24 24 24 24 24 24 25 25 25 24 25 25 24 24 24 25 25 25 25 25 24 24 24 24
13 14 14 14 13 13 13 13 14 14 15 16 16 16 17 17 17 16 16 15 14 11 9 9 9 9 12 13 15 18 20 22 24 23 24 25 26 25 24 23 23 23 23 24 24 25 25 25 26 26 26 26 26 25 25 26 26 25 26 26 25 25 25 25 24 23 23 23 24 24 25 25 25 25 25 24 24 24 24 24 25 25 25 24 24 24 24 24
12 13 14 14 14 14 14 14 15 16 16 17 17 17 17 17 17 17 16 16 15 13 10 9 9 10 12 13 16 21 23 23 23 23 23 24 24 24 24 23 22 23 23 24 24 25 25 25 26 26 26 26 26 26 25 26 26 26 26 26 24 24 24 25 23 23 23 23 24 24 24 24 25 25 24 23 24 24 24 24 24 24 24 24 24 24 25 24
13 14 14 15 15 16 16 16 16 17 17 17 18 18 18 18 18 17 17 16 16 14 11 10 10 11 12 13 18 23 24 23 23 23 22 23 24 23 23 23 22 23 24 23 24 25 26 26 26 27 27 26 26 26 26 27 27 27 26 25 24 24 24 25 24 23 24 24 24 24 24 24 25 26 25 23 24 24 24 24 24 24 24 24 24 24 24 24
14 15 15 15 16 17 17 17 17 17 18 18 18 18 18 18 18 18 17 17 16 14 12 10 10 11 12 13 19 23 24 23 23 23 21 22 23 22 23 23 22 23 24 23 24 25 26 26 27 27 27 26 26 27 27 27 27 27 26 25 23 22 23 24 24 24 24 24 24 24 24 24 25 26 25 24 24 24 24 24 24 24 24 24 24 24 24 25
15 16 16 16 17 17 17 18 18 18 18 18 18 18 18 18 18 18 17 17 16 14 12 10 11 12 12 15 19 23 24 23 23 23 21 22 22 22 23 23 23 24 24 24 25 25 25 26 27 27 27 26 27 27 27 27 27 26 25 24 23 23 23 23 23 25 25 24 24 24 24 24 25 25 24 24 24 24 24 24 24 24 24 24 24 24 24 25
16 16 17 17 17 18 18 18 18 18 19 19 19 19 19 18 18 17 17 17 15 13 11 12 12 12 13 18 22 23 24 23 23 23 22 22 23 23 23 23 23 23 24 25 25 25 25 26 27 27 26 27 27 27 27 27 26 26 25 25 24 23 23 22 22 24 25 24 24 24 23 23 24 24 24 24 24 24 24 24 25 25 25 25 25 24 24 25
16 16 17 17 17 18 18 19 19 19 19 20 20 19 19 19 18 17 17 17 15 12 12 12 13 13 15 20 23 23 23 23 24 24 23 23 23 22 22 23 23 24 24 25 25 25 25 26 27 27 27 27 27 27 27 27 26 26 25 25 25 23 23 23 22 23 24 23 24 24 22 23 24 23 24 24 24 24 24 24 25 25 25 25 25 25 24 25
16 16 17 18 18 18 19 19 19 19 20 20 20 20 19 18 18 17 17 17 14 12 12 13 13 13 16 20 23 23 23 24 24 24 23 23 23 22 22 22 22 24 24 24 25 25 24 25 26 27 27 27 27 27 27 26 26 26 24 23 24 23 23 23 22 22 24 23 23 24 23 23 24 23 23 24 24 24 24 24 25 25 25 25 25 25 25 25
17 17 17 18 18 19 19 19 20 20 20 20 20 19 19 18 17 17 17 16 14 12 13 13 12 13 18 22 23 23 23 24 24 24 23 23 24 23 22 22 22 23 24 24 24 24 24 25 26 27 27 27 27 27 27 25 24 26 25 22 22 23 23 24 23 23 24 24 23 24 24 24 24 23 23 24 24 24 24 24 25 25 25 25 25 25 25 25
17 17 18 18 18 19 19 20 20 20 20 20 19 19 18 17 17 16 16 15 13 13 13 13 12 13 19 24 24 23 23 24 24 24 23 23 24 23 22 22 22 23 24 24 24 25 25 25 26 26 27 27 27 27 25 22 22 24 25 22 22 24 23 23 23 23 24 24 24 24 25 24 24 23 23 24 24 24 25 24 25 25 25 25 25 25 25 25
18 18 18 18 19 19 20 20 20 20 20 20 19 19 18 17 16 15 15 14 13 13 13 13 13 16 22 24 23 23 23 23 24 23 23 22 23 23 23 22 22 23 24 24 25 25 25 25 26 26 26 26 26 27 24 22 23 23 23 22 22 24 24 24 24 24 24 25 25 25 25 25 24 23 23 23 24 24 25 25 25 25 25 25 25 25 25 25
18 18 18 19 19 19 20 21 21 21 20 20 19 18 17 16 15 15 13 13 15 18 19 18 17 20 23 23 23 23 23 23 24 23 22 22 23 24 23 23 23 24 24 24 24 24 25 25 25 25 25 26 27 27 26 25 26 25 25 23 22 23 24 25 26 25 25 25 25 25 25 25 24 23 23 23 23 24 25 25 25 25 25 25 25 25 25 25
18 18 19 19 19 19 20 21 21 21 20 20 18 18 18 18 18 18 15 15 18 20 22 21 20 21 22 22 22 23 24 24 24 23 22 23 24 24 24 24 24 24 24 25 24 24 25 25 24 25 25 26 27 27 28 28 27 27 26 24 23 23 24 26 26 26 26 25 25 26 26 25 25 24 23 23 23 23 24 25 25 25 25 25 25 25 25 25
18 19 19 19 19 20 20 21 21 21 20 20 19 19 21 20 21 21 19 19 20 19 20 21 20 20 22 22 22 22 23 24 24 24 23 24 25 25 24 24 24 24 24 24 24 25 25 25 25 26 26 26 26 26 27 28 27 27 26 25 23 23 24 26 25 25 26 25 25 26 25 25 25 24 24 23 23 23 24 25 25 25 25 25 25 25 26 26
18 19 19 20 20 20 21 21 21 21 20 20 20 20 21 21 21 21 20 21 21 19 19 19 19 20 21 21 21 22 22 24 24 23 23 24 25 25 24 24 24 24 23 24 25 24 24 24 25 26 25 25 26 26 26 27 27 27 27 25 23 24 24 23 23 24 25 25 25 25 25 24 24 24 24 24 23 23 23 25 25 25 25 25 25 25 25 26
18 19 19 20 20 20 21 21 21 21 20 20 20 20 21 21 21 20 20 21 21 20 20 20 20 21 22 22 21 21 23 24 25 24 24 24 24 24 25 24 24 24 23 24 25 24 23 25 26 25 24 26 26 25 26 27 27 27 27 24 23 24 24 22 22 23 23 24 24 24 24 24 23 24 24 24 24 24 23 24 25 25 25 25 25 25 26 26
18 19 19 20 20 20 21 21 21 21 21 20 21 21 21 21 21 20 21 21 21 21 22 22 22 22 23 24 22 23 24 24 25 25 24 25 25 24 25 25 24 24 24 24 25 25 24 24 25 25 25 27 27 26 26 26 25 26 27 25 24 24 25 24 23 23 23 24 24 24 23 23 24 24 24 24 24 23 23 23 24 25 25 25 26 26 26 26
18 19 19 20 20 20 21 20 21 21 21 21 22 22 21 21 21 20 21 21 21 23 23 22 22 23 24 23 23 23 24 24 25 25 25 26 25 24 25 24 25 25 23 23 25 26 25 24 24 25 25 26 27 26 26 26 25 24 26 27 26 26 26 25 24 24 22 22 24 24 21 22 24 24 24 24 23 23 23 23 23 24 24 25 25 26 26 26
18 19 19 20 20 21 20 21 21 21 22 22 22 22 22 22 21 20 21 21 22 23 24 24 23 24 24 24 23 23 24 25 25 25 25 26 26 25 25 24 25 25 23 24 25 25 25 24 25 26 25 26 27 26 26 26 24 23 26 28 28 28 26 25 25 24 22 22 25 26 22 21 23 24 25 24 23 23 23 23 24 24 24 25 25 26 26 26
18 19 19 20 20 20 21 22 21 21 22 23 23 23 22 22 21 20 21 21 21 22 23 24 24 25 25 24 24 24 24 25 26 25 25 26 26 26 25 25 25 25 24 24 24 24 25 25 25 26 26 26 26 26 26 26 25 24 26 27 27 27 26 25 25 24 24 24 24 25 24 22 21 23 25 24 23 23 23 23 23 24 24 25 25 26 26 26
19 19 19 20 20 20 20 21 20 21 23 23 23 23 22 22 21 21 21 20 21 23 23 24 25 25 25 24 24 25 24 24 25 25 25 26 26 26 26 26 26 25 25 25 23 23 25 25 25 26 26 26 26 27 26 27 26 26 26 26 27 28 27 27 26 24 25 24 22 23 24 22 21 23 25 24 24 23 23 23 23 23 24 25 25 26 26 26
19 19 19 20 20 20 20 20 20 21 23 23 23 23 22 21 21 22 21 20 22 23 23 24 25 25 24 25 25 25 25 25 25 25 25 26 26 27 26 25 26 25 25 25 25 25 25 26 26 27 27 26 27 27 27 27 27 26 26 26 27 27 27 27 26 24 24 23 21 22 23 22 21 23 23 23 23 24 25 24 23 23 24 25 25 26 26 26
19 19 19 20 20 20 19 19 21 23 23 23 23 22 22 22 22 22 20 20 22 23 24 24 25 24 24 25 25 24 25 25 25 25 25 26 26 26 25 24 25 26 25 25 26 26 25 25 26 27 27 27 27 27 26 27 27 26 26 26 26 26 26 26 25 24 22 21 22 23 23 23 22 22 23 24 24 26 26 25 24 23 23 24 26 26 26 26
19 19 19 20 20 19 19 21 23 24 23 23 22 22 22 22 22 20 20 21 22 23 24 24 23 23 23 24 24 24 25 25 24 25 26 25 26 26 25 25 25 25 24 25 25 25 25 25 26 27 27 27 27 27 26 27 27 27 28 26 24 24 24 23 22 22 21 21 22 23 24 23 21 23 25 26 26 27 27 26 24 23 23 24 25 26 26 26
20 20 20 21 21 20 21 23 24 23 23 22 22 22 23 22 21 20 21 22 22 22 23 23 23 22 22 24 24 23 24 24 24 25 25 24 25 26 25 25 25 23 22 23 24 24 26 26 26 26 27 27 27 27 26 26 27 28 27 25 22 21 21 21 21 21 21 21 23 24 24 22 22 25 27 27 27 27 27 27 25 24 23 23 25 26 26 26
20 21 22 22 22 22 23 24 24 23 23 22 22 23 23 21 20 20 21 22 22 22 23 23 23 22 22 23 24 23 23 24 24 24 24 24 25 25 24 24 24 24 22 22 22 22 24 26 26 26 26 27 28 26 24 24 26 27 25 23 22 21 21 21 20 21 21 22 23 24 24 22 23 25 27 27 27 27 28 28 26 25 23 23 25 26 26 26
21 23 23 23 23 24 24 24 24 23 22 21 23 24 22 21 20 21 21 22 22 22 23 22 22 23 23 23 23 23 24 23 24 24 24 24 24 24 24 24 24 25 24 23 22 22 22 23 25 26 26 27 28 28 27 27 26 27 28 26 23 22 21 21 21 21 22 22 22 23 23 22 22 24 26 26 27 27 27 28 27 25 24 23 24 26 26 26
22 23 23 24 24 24 24 24 24 23 21 23 24 23 21 20 20 20 21 23 23 23 23 22 22 23 23 23 22 23 23 23 23 24 24 24 23 23 24 24 24 25 24 22 22 23 21 22 26 27 26 27 28 28 29 28 26 26 28 26 24 24 24 22 22 22 22 21 22 22 22 24 25 25 26 26 26 26 27 27 27 25 24 23 24 25 26 26
22 23 23 23 23 24 25 24 24 23 22 24 24 21 21 21 21 21 22 23 23 23 23 22 22 23 22 23 23 23 23 23 23 23 23 23 23 23 24 24 24 24 24 23 23 23 21 22 26 26 25 27 29 28 28 28 26 25 25 24 25 28 27 22 21 22 22 21 22 22 22 24 26 26 26 26 26 26 27 27 27 25 24 23 23 24 25 26
22 23 23 23 23 24 24 24 24 23 24 25 23 21 21 22 22 22 22 23 22 22 22 22 22 21 21 22 22 23 23 23 23 22 22 22 23 23 23 24 24 24 24 24 23 23 22 23 26 26 26 27 27 28 28 28 28 26 24 25 27 27 27 24 22 22 21 21 22 22 22 23 23 24 25 26 26 26 26 27 27 25 24 23 23 23 24 25
22 23 23 23 23 24 24 24 24 24 24 24 22 21 21 22 22 22 22 22 22 22 22 21 21 21 21 21 22 22 23 22 22 22 22 22 22 23 23 23 24 23 23 23 24 24 22 22 24 26 26 26 27 27 27 27 28 27 26 28 27 24 23 23 22 21 21 21 21 22 22 22 22 24 25 26 26 26 26 27 26 25 24 24 23 23 23 23
22 23 24 23 23 23 24 24 24 25 25 23 22 21 21 22 22 22 22 22 22 23 23 21 21 21 21 21 21 22 22 22 22 22 22 22 22 23 23 23 23 23 22 23 24 24 23 22 23 25 26 25 27 27 25 25 27 27 28 29 28 25 24 23 23 23 22 21 22 22 21 22 23 24 25 26 25 26 26 26 26 26 25 24 23 23 23 23
21 24 24 22 23 23 23 24 24 25 24 21 21 21 21 22 24 23 22 22 22 23 23 22 21 22 22 21 21 21 22 22 22 22 21 21 22 23 23 22 23 23 22 23 24 23 23 22 22 24 25 24 25 26 26 27 27 26 26 25 25 26 25 25 24 23 22 21 22 22 21 22 23 23 24 25 25 25 26 26 26 26 26 25 24 23 22 22
21 24 24 22 23 22 23 24 23 22 22 21 21 21 21 22 24 24 22 22 23 23 22 22 22 22 22 22 21 21 22 22 21 22 22 22 22 22 23 22 21 22 23 24 24 24 23 23 22 23 24 23 25 26 26 28 29 28 27 26 26 25 24 23 22 22 23 22 22 22 22 22 23 21 22 24 25 25 26 26 26 26 26 25 24 24 23 22
22 25 23 22 23 22 23 24 21 19 22 23 21 21 22 23 23 23 22 22 23 23 23 22 22 21 21 22 22 21 21 22 21 22 22 22 22 22 23 22 20 21 23 24 24 23 23 23 22 22 23 24 25 25 24 25 27 29 28 28 29 28 25 23 21 22 22 22 22 22 22 22 22 21 22 24 24 25 25 26 25 25 25 25 24 24 23 23
23 23 22 22 22 22 24 24 21 21 23 22 21 21 22 22 22 23 22 22 22 23 23 22 22 22 22 21 21 21 21 21 21 21 22 22 23 23 22 22 21 21 24 24 23 23 22 22 21 22 23 25 26 25 24 25 26 27 27 27 27 27 27 25 24 24 23 22 22 22 22 22 22 21 22 23 23 24 24 25 24 24 24 24 24 24 23 23
20 20 21 22 22 23 24 23 22 23 23 22 22 22 22 22 22 22 22 21 21 22 22 22 22 22 22 21 21 21 21 21 21 21 21 22 23 23 22 22 22 22 23 23 23 23 22 21 21 21 22 23 24 24 24 25 26 26 25 25 25 25 27 26 25 25 23 22 22 22 22 22 22 22 22 23 23 23 23 24 23 23 22 23 23 23 23 23
19 20 21 21 22 23 22 22 22 23 22 22 23 22 22 22 22 21 21 21 20 20 21 22 21 21 21 21 21 21 21 21 21 21 21 22 23 23 22 22 22 22 23 22 22 23 22 20 20 21 21 21 21 22 22 23 24 24 24 24 24 25 26 25 24 23 22 22 22 22 22 22 21 22 22 22 23 23 22 23 22 22 22 22 22 22 22 22
21 22 22 22 22 22 20 19 20 22 22 22 22 21 21 22 22 21 21 21 21 20 21 21 20 21 22 21 21 21 21 21 21 21 21 22 23 23 22 22 22 22 23 22 21 22 22 21 21 21 21 21 21 21 22 22 22 22 23 23 24 24 24 25 24 22 22 22 21 23 23 21 21 22 22 22 22 22 21 21 22 21 21 21 21 21 21 20
21 22 21 22 22 22 21 19 19 21 22 22 22 21 21 22 22 21 22 21 21 20 21 20 20 21 22 21 21 21 21 21 21 21 21 21 21 22 22 22 22 22 23 22 22 22 22 21 21 21 21 21 22 21 22 23 22 22 22 23 23 23 24 24 24 23 24 23 22 23 23 22 22 22 22 21 21 21 21 21 21 21 20 20 20 20 20 20
20 20 18 19 21 22 22 20 20 20 21 21 21 21 21 21 21 22 22 21 21 20 21 21 20 20 20 20 21 21 20 21 21 21 20 20 21 22 23 23 23 22 22 22 21 22 22 21 21 21 22 22 23 23 23 23 23 23 23 22 23 23 24 23 23 23 24 23 22 23 23 23 23 23 22 22 21 21 21 21 21 20 20 20 20 20 20 20
18 19 17 17 19 21 20 19 19 20 21 21 21 21 21 21 21 20 20 21 21 20 20 21 20 19 19 20 21 21 20 21 21 20 20 20 20 21 22 23 23 22 22 22 21 20 21 22 21 21 22 23 23 23 23 23 23 23 23 23 23 23 23 23 23 23 24 23 22 23 23 23 24 24 22 22 21 21 21 21 20 20 20 20 20 20 20 20
18 18 17 18 19 19 18 17 19 22 21 20 21 21 20 21 21 20 19 20 21 21 20 20 20 19 19 20 21 21 20 20 21 20 20 20 20 21 21 21 22 22 22 22 21 21 22 21 20 20 22 22 23 23 23 23 24 23 23 23 23 23 23 23 22 22 22 22 22 23 22 22 23 23 22 21 21 21 20 20 20 20 20 20 20 20 20 20
15 15 16 18 20 19 18 18 19 22 22 21 21 21 20 21 21 20 20 19 20 21 21 21 20 19 20 21 21 21 20 20 21 21 20 21 20 20 21 21 21 22 22 21 20 21 22 21 20 21 21 21 22 23 23 23 24 23 22 22 22 22 22 21 21 21 21 22 22 22 22 22 22 22 22 21 20 20 20 20 20 20 21 21 21 20 20 20
14 15 14 17 20 18 17 18 19 21 22 21 21 20 21 21 20 20 21 20 19 20 20 20 20 20 21 21 21 21 21 20 21 20 20 20 20 20 20 20 20 21 21 21 20 19 20 21 21 21 21 21 21 22 23 23 23 22 21 21 21 22 22 21 22 22 21 22 22 22 22 22 22 21 21 20 20 20 20 21 20 20 21 21 21 21 20 20
Height
810 809 808 806 805 804 803 802 802 801 800 799 798 798 797 796 796 795 794 793 792 791 791 790 789 788 787 786 785 785 784 783 782 782 780 772 771 774 775 776 777 778 780 782 783 785 788 791 792 793 795 796 797 798 797 797 797 802 811 819 820 814 812 807 806 807 806 809 811 810 807 810 815 814 811 811 815 817 818 820 819 818 817 819 823 826 831 834
809 808 807 806 805 804 803 802 801 800 799 798 797 797 796 795 795 794 794 793 792 791 790 789 788 788 786 786 785 784 783 782 782 779 773 769 770 772 774 776 777 777 778 781 782 783 787 790 792 793 795 798 799 798 799 798 799 805 812 818 816 809 806 802 801 802 802 807 810 809 808 809 813 813 811 816 823 820 822 826 822 823 823 824 826 829 833 834
808 807 806 805 804 803 802 801 800 799 798 798 796 796 795 794 794 793 793 792 791 790 789 789 788 787 786 786 785 784 784 782 780 774 768 767 768 770 772 774 776 777 777 779 781 781 784 787 790 792 795 801 800 799 802 801 801 805 809 816 810 803 803 799 798 800 800 803 808 811 808 810 812 811 812 818 823 822 824 826 824 827 827 826 827 829 833 835
808 807 806 805 803 802 802 801 800 799 797 796 795 795 794 793 793 793 792 791 791 790 789 788 787 786 786 785 785 784 784 782 776 769 767 767 766 768 771 773 774 776 777 778 781 783 784 787 790 791 795 803 802 800 803 802 803 805 807 811 804 800 804 800 797 798 799 801 806 809 810 813 811 809 813 817 822 826 824 821 820 824 824 825 827 829 833 835
808 806 805 804 803 801 801 800 799 797 796 795 795 794 793 793 792 792 791 790 790 789 788 787 786 786 785 785 785 784 784 782 773 767 768 767 767 767 769 772 773 776 778 780 782 784 786 787 790 792 796 802 804 804 804 799 800 805 804 802 798 799 805 801 797 799 800 802 806 809 811 812 810 811 814 815 821 824 820 818 817 819 821 823 825 828 832 835
807 806 805 803 802 801 800 799 798 796 795 794 794 793 792 792 791 791 790 790 789 788 787 786 786 785 785 785 785 785 784 780 771 767 768 767 767 767 769 771 773 776 779 780 782 783 786 788 791 795 798 801 806 807 804 798 799 807 803 797 796 797 802 801 798 800 801 805 809 809 809 808 811 816 815 814 818 817 815 815 817 819 822 824 826 829 832 834
807 805 804 803 802 801 799 798 797 795 795 794 793 792 792 791 790 790 789 789 788 787 787 786 786 785 785 785 785 785 784 777 769 768 767 766 767 766 769 771 773 777 779 780 781 783 786 789 792 794 798 802 805 805 803 799 799 806 804 798 797 797 799 799 799 802 803 807 808 806 807 809 814 818 816 817 818 814 814 816 818 821 824 827 829 830 833 835
806 805 804 802 801 800 799 797 796 795 794 793 793 792 791 791 790 789 788 788 787 786 786 785 785 785 785 785 785 784 783 776 769 768 766 765 766 766 769 771 774 777 778 780 781 782 785 790 792 792 799 802 801 803 803 802 802 805 803 798 798 799 798 798 801 806 807 808 806 806 811 812 812 814 817 820 818 815 816 818 820 823 825 828 831 832 834 836
806 805 803 802 801 799 798 797 796 795 794 793 792 792 791 790 789 789 788 787 786 786 785 785 785 785 785 786 784 783 779 773 770 768 766 765 765 766 769 771 774 777 779 781 781 783 786 790 790 789 797 800 798 802 803 805 805 801 799 799 802 802 800 800 805 809 809 808 806 810 816 815 810 812 821 822 817 817 817 820 822 824 827 830 832 833 835 837
806 804 803 802 800 799 798 797 796 794 794 793 792 791 790 790 789 788 787 787 786 785 785 785 785 785 786 785 784 782 775 771 771 768 766 767 766 768 770 771 774 777 779 782 782 783 784 787 787 784 790 796 798 800 801 804 801 796 797 801 803 805 803 802 806 808 808 808 808 813 819 817 811 814 825 824 817 817 819 823 824 826 829 830 832 834 835 837
805 804 803 801 800 799 798 796 795 794 793 792 791 790 790 789 788 787 787 786 785 785 785 785 785 786 787 786 784 780 772 770 771 769 769 768 768 770 772 773 775 777 779 782 783 784 784 785 783 784 791 796 798 800 800 798 795 794 798 805 808 809 808 806 808 807 807 811 810 813 819 819 814 818 825 822 818 819 821 825 826 828 830 831 833 834 836 838
805 803 802 801 800 798 797 796 795 794 793 792 791 789 789 788 787 787 786 785 785 785 785 785 786 786 786 786 783 776 770 771 771 771 771 770 771 772 773 776 777 778 779 781 783 783 784 784 783 788 793 794 799 802 799 793 793 796 798 810 816 813 814 815 813 809 808 814 811 813 826 828 823 824 823 820 820 820 823 826 827 829 830 831 833 834 836 837
804 803 802 800 799 798 797 796 795 794 792 791 790 788 787 787 786 786 786 785 785 785 785 785 786 786 787 783 776 771 771 771 771 772 773 772 773 774 775 777 778 780 780 780 782 783 785 785 785 789 790 792 799 799 795 792 793 799 802 809 817 821 823 819 816 812 812 816 810 815 836 839 829 826 822 820 821 823 826 828 828 830 830 832 833 835 836 837
804 803 802 800 799 798 797 796 795 793 792 790 788 787 786 786 786 785 785 785 784 785 785 786 786 787 787 779 770 770 771 770 771 772 772 773 774 775 777 778 779 781 781 782 783 784 785 785 785 788 789 791 795 793 794 797 797 802 808 810 816 826 827 818 818 819 818 818 811 817 838 839 830 827 823 820 821 823 827 829 829 830 830 832 833 835 836 837
804 803 801 800 798 797 796 795 794 792 791 789 788 787 785 785 785 785 785 785 785 785 785 786 786 787 786 778 769 770 770 770 771 771 772 773 773 775 777 778 780 781 782 783 783 784 785 786 787 791 792 790 792 797 803 805 803 804 815 825 822 822 825 821 820 820 820 820 815 821 836 836 830 828 823 821 823 824 828 830 829 830 831 832 833 834 836 836
804 802 801 800 798 796 795 794 793 792 790 788 787 786 785 785 785 785 785 784 785 786 786 787 787 787 786 777 770 770 770 770 770 770 771 773 773 775 776 778 780 781 783 783 784 785 786 788 789 791 793 793 797 803 807 813 815 808 814 831 828 821 826 825 821 817 816 820 820 823 832 834 829 827 824 822 823 826 828 830 830 830 831 832 833 833 835 837
803 802 800 799 798 796 795 793 793 791 789 788 787 786 785 785 785 785 785 785 786 786 786 787 787 787 782 771 770 771 770 770 771 770 771 772 774 774 776 779 780 782 783 783 785 785 787 790 792 793 794 798 801 802 812 824 824 815 814 828 829 821 824 826 823 819 814 819 823 823 827 830 828 825 826 824 823 826 829 831 831 830 831 832 833 833 834 836
803 802 800 799 797 796 794 793 792 790 789 788 787 786 786 786 785 785 785 785 786 787 787 787 787 788 782 772 772 773 770 770 770 771 772 773 774 775 776 778 780 782 784 787 787 787 791 793 794 798 800 802 803 802 815 821 817 816 817 826 830 821 820 822 821 818 815 819 823 825 828 829 827 826 827 826 824 827 828 829 830 830 831 832 833 833 834 835
802 801 800 798 797 795 793 792 791 790 789 788 787 787 786 786 785 785 786 786 786 785 784 784 783 785 782 774 771 770 769 769 770 770 772 773 775 776 776 778 780 783 788 791 792 791 792 796 799 804 804 803 803 800 806 808 806 810 811 820 830 824 819 818 815 813 813 821 824 824 829 829 828 828 828 827 826 827 828 828 831 831 831 832 833 833 833 835
801 800 799 798 796 795 793 791 791 790 789 788 787 787 787 788 787 785 785 784 783 780 778 778 779 780 778 773 770 769 768 768 769 770 771 772 773 776 778 780 783 786 789 792 794 791 790 800 804 803 802 800 800 799 799 800 801 805 807 816 827 825 820 815 814 813 810 821 826 822 826 828 828 828 827 827 828 830 830 830 831 831 832 832 833 833 833 834
800 799 798 797 795 794 793 791 790 789 789 788 787 787 789 790 791 789 785 780 776 776 776 775 776 777 773 771 770 769 770 769 769 770 771 772 771 777 782 784 788 792 792 792 793 791 793 802 802 798 798 797 798 799 799 800 802 805 807 812 821 825 821 816 817 816 812 821 827 823 828 831 829 828 827 827 830 831 829 829 830 830 831 832 832 832 832 832
799 798 796 795 794 793 792 790 790 789 789 788 787 787 788 789 790 788 787 785 777 773 776 775 775 776 770 769 769 769 772 773 773 772 771 772 773 779 784 786 790 793 793 793 794 798 802 802 797 796 797 798 800 800 801 803 803 806 806 809 819 822 823 828 825 818 816 822 827 826 829 833 830 826 826 826 827 829 826 825 826 827 829 831 831 832 832 832
799 796 795 794 793 792 791 789 789 788 788 787 787 787 787 787 786 785 787 789 782 774 774 774 774 774 770 769 767 768 773 773 775 774 770 772 776 779 783 787 791 793 794 794 794 802 807 799 792 795 797 798 801 802 803 804 805 807 806 810 819 818 823 835 832 823 821 822 826 828 829 832 831 828 826 825 824 826 826 825 825 824 826 828 828 829 831 832
798 795 794 793 792 791 789 788 788 787 787 786 786 786 786 785 785 785 785 789 787 777 771 772 771 771 771 768 766 769 772 771 772 772 769 771 777 779 781 785 790 793 794 794 792 796 800 794 790 794 798 798 801 804 804 806 810 810 807 810 817 816 816 823 826 825 824 825 824 829 838 836 831 831 829 825 825 826 827 828 828 826 825 826 826 827 828 829
797 795 793 791 791 790 789 788 787 787 786 785 785 785 784 784 783 784 785 790 791 779 770 771 771 770 768 767 768 768 769 770 769 768 766 768 774 779 782 783 786 793 797 796 794 793 795 793 790 795 799 798 800 804 803 805 811 813 809 807 808 810 811 816 821 825 833 838 826 826 845 843 829 830 828 824 828 829 828 829 829 827 826 827 827 827 827 828
796 794 791 790 789 788 788 787 786 786 785 784 784 783 783 783 782 783 787 795 794 783 775 773 772 771 768 768 768 766 773 774 766 765 766 766 768 773 782 784 784 791 795 793 792 793 793 792 791 795 799 800 801 803 802 803 811 815 807 801 802 804 810 817 819 822 832 837 822 818 837 842 832 828 824 823 829 830 829 830 828 826 826 826 826 826 826 827
794 792 790 789 787 787 787 785 786 786 784 784 782 782 782 780 781 781 788 803 802 789 782 776 772 771 769 769 767 770 782 778 767 766 766 767 767 768 780 787 785 788 788 791 798 795 791 793 795 795 797 801 802 802 801 800 809 813 802 799 804 804 810 815 815 819 820 822 823 819 827 839 836 826 820 822 829 831 830 829 827 825 825 824 824 824 824 825
792 790 788 787 786 786 785 785 786 784 783 783 781 782 780 778 780 781 794 817 809 787 782 777 770 768 767 767 767 771 777 774 774 774 764 765 769 769 779 784 783 786 784 790 801 795 789 793 795 795 797 801 798 796 797 798 805 807 801 801 803 803 807 809 812 818 816 822 835 829 826 840 837 823 820 823 828 831 828 826 826 824 823 822 823 822 822 823
790 788 786 786 785 785 784 785 784 782 782 781 780 781 778 777 780 783 800 818 804 783 781 777 769 770 769 769 771 772 772 771 776 774 765 767 768 769 778 780 780 785 784 787 792 791 788 788 788 790 795 797 794 792 792 796 802 802 800 801 802 803 807 810 814 818 822 830 835 827 825 836 834 823 825 827 827 826 820 819 822 822 821 820 820 821 821 822
788 786 784 784 784 783 784 783 781 781 780 779 780 779 777 779 783 797 815 815 799 786 780 776 775 776 775 775 776 776 774 774 774 771 769 772 769 769 775 777 778 784 786 787 788 787 786 785 784 786 789 789 788 791 792 794 797 797 801 805 809 811 810 816 818 820 834 839 828 818 818 829 833 823 821 823 816 810 811 815 818 819 820 819 818 819 819 821
785 784 782 782 782 782 782 781 779 780 779 779 779 776 779 784 790 812 823 807 796 791 782 780 782 780 779 780 781 780 778 777 775 775 776 776 774 775 779 781 782 787 793 792 790 789 788 788 788 784 783 784 787 792 794 794 794 796 802 807 817 824 822 828 831 831 843 841 824 816 814 827 836 820 810 811 805 801 804 809 812 816 819 818 816 816 816 818
782 781 780 779 780 781 780 780 778 779 779 777 778 777 783 794 804 817 815 800 798 795 787 787 785 783 784 782 784 784 782 781 779 779 782 782 782 782 785 788 788 796 804 800 795 794 789 787 787 784 781 782 788 795 798 799 796 798 803 805 821 839 842 848 849 843 841 833 822 816 817 830 829 808 802 805 801 799 798 799 804 809 813 814 813 813 814 816
780 778 778 777 778 779 778 778 777 778 777 776 779 779 786 805 817 818 809 802 801 794 787 789 786 786 787 784 786 786 783 785 782 781 784 784 786 787 788 788 786 794 803 802 801 800 795 789 785 787 785 780 784 794 800 804 801 801 804 805 818 838 852 861 860 848 837 828 818 814 822 830 819 802 802 801 797 795 792 793 796 800 806 811 810 811 812 814
777 776 776 776 777 777 777 778 777 777 777 776 779 783 795 815 819 811 806 802 797 790 789 792 788 787 787 788 790 786 785 788 784 783 785 785 789 792 790 788 787 787 792 799 801 800 805 801 787 785 785 779 781 785 788 794 798 798 795 798 807 818 832 847 847 839 833 829 824 822 826 825 813 805 801 795 793 792 790 791 792 795 802 807 809 810 811 813
776 775 776 775 776 777 776 777 776 776 776 776 781 793 808 819 816 810 806 798 793 791 791 792 791 790 790 790 790 786 786 790 787 787 788 790 795 796 793 790 788 787 790 800 801 798 806 801 781 776 778 776 779 779 778 787 798 798 792 799 806 799 803 820 825 820 821 829 831 828 821 809 801 800 795 791 793 791 790 791 792 797 802 807 812 812 811 812
776 775 776 776 776 777 776 777 776 776 775 776 788 804 811 810 807 806 801 793 793 794 793 793 793 795 796 793 792 789 785 787 790 793 795 796 796 795 794 790 788 788 789 795 798 798 805 796 777 778 779 772 773 774 775 783 793 799 800 802 799 787 790 811 822 818 818 829 831 823 815 804 799 800 794 793 795 793 792 792 793 799 803 808 812 811 812 812
776 775 776 776 777 777 777 777 776 775 775 779 795 808 807 800 798 798 795 791 793 793 795 799 799 800 803 799 796 793 788 788 792 795 801 804 799 794 794 790 787 788 786 789 793 794 800 795 778 778 781 773 769 771 774 775 780 794 801 794 790 792 793 803 820 828 830 834 828 819 816 811 810 808 799 796 798 796 795 793 795 800 804 808 811 811 812 812
775 775 776 777 777 777 777 777 776 775 776 787 801 807 804 799 794 793 792 791 792 791 796 802 802 802 805 803 800 795 792 794 797 798 801 804 800 794 793 792 788 787 785 786 789 790 796 797 783 775 779 776 770 775 783 779 775 782 786 780 786 804 808 807 818 828 834 839 831 822 821 816 809 804 798 800 801 798 797 795 797 801 803 806 809 810 812 812
774 776 779 779 777 777 777 777 776 776 782 796 806 805 802 798 792 791 791 791 791 792 796 802 801 800 802 803 802 798 795 797 799 800 802 806 803 793 791 793 790 787 786 785 788 789 792 799 791 777 776 778 774 778 787 786 781 780 780 779 783 793 799 803 807 808 819 835 832 826 826 815 802 799 798 800 800 798 798 798 799 800 801 803 806 808 811 812
774 779 782 780 777 778 778 777 778 781 790 802 806 804 801 797 790 788 789 790 790 791 795 801 800 800 801 801 801 800 798 799 799 800 803 806 804 795 790 793 791 788 787 786 787 789 791 799 797 782 776 780 780 779 779 779 783 784 786 789 790 789 790 795 801 800 806 823 827 827 825 809 799 804 803 799 799 798 797 798 799 798 799 801 803 806 809 812
776 782 784 779 778 779 778 780 786 792 797 803 804 802 799 795 790 789 788 788 789 789 792 795 798 800 800 800 801 800 799 801 801 801 802 802 802 800 793 792 794 790 786 787 788 789 792 796 796 789 783 782 779 775 772 771 773 776 781 784 784 788 791 800 813 809 802 809 816 819 817 805 802 807 803 798 798 796 795 797 799 798 799 801 803 805 808 811
779 786 785 779 779 780 779 787 797 799 797 798 800 799 796 793 792 792 789 788 789 789 789 792 796 799 800 799 800 801 800 803 804 802 801 800 800 799 792 789 792 790 785 788 789 787 789 794 797 793 785 780 777 775 775 775 771 770 775 776 775 779 783 794 810 810 806 811 810 811 812 807 805 806 801 799 798 796 795 796 798 800 800 802 803 804 807 810
783 786 782 779 780 780 783 794 800 798 796 795 796 796 794 794 795 793 792 792 792 791 791 794 796 797 798 799 799 801 802 804 807 803 802 802 798 793 790 787 788 788 786 789 790 787 790 798 800 793 784 778 774 773 774 774 773 775 778 778 779 779 777 781 789 793 802 810 808 812 816 809 805 804 800 798 799 798 798 797 800 803 802 803 804 805 808 810
786 786 782 781 780 780 786 795 799 797 797 796 795 795 794 795 796 795 795 796 796 795 795 797 797 796 797 799 799 802 803 805 807 804 803 804 797 791 789 787 786 787 787 790 790 788 794 804 803 796 795 794 787 784 782 778 778 783 787 786 786 784 780 781 785 789 798 805 804 807 810 806 805 805 801 800 801 801 801 800 803 806 806 806 807 806 808 809
787 787 785 783 781 782 789 794 795 796 798 798 798 799 798 797 796 796 797 798 797 798 798 798 798 797 797 799 800 802 801 802 805 805 804 802 796 790 789 788 787 787 787 789 787 787 797 807 804 800 804 808 806 802 798 793 790 789 791 791 789 787 784 782 788 796 802 808 806 799 799 808 812 807 804 804 803 804 805 804 804 806 808 809 809 808 809 810
787 788 788 786 783 785 791 794 794 794 796 797 800 803 802 800 798 796 796 798 798 798 799 799 799 798 798 800 803 805 803 801 803 805 805 803 797 793 790 789 789 787 787 787 786 788 797 804 805 804 806 809 810 809 803 799 799 798 796 795 791 791 789 783 787 793 796 805 807 795 795 811 816 810 807 807 806 807 808 808 808 809 810 810 811 811 812 813
788 790 792 791 789 790 793 796 796 795 794 795 800 803 803 803 802 798 796 797 799 799 799 801 801 801 802 803 805 808 807 805 804 805 808 806 800 795 791 789 790 788 786 787 786 789 797 803 805 806 806 806 806 805 800 797 801 803 801 798 794 794 791 786 787 788 788 797 802 796 796 806 808 806 807 808 808 810 810 810 810 811 812 812 813 813 814 815
790 793 794 794 794 794 794 795 797 796 795 796 800 804 804 805 804 802 799 798 798 799 800 803 804 805 806 806 805 809 810 809 809 809 809 808 803 797 792 789 789 788 787 788 788 790 798 804 805 805 804 802 800 799 797 797 799 799 799 799 798 796 793 792 794 793 789 791 795 795 798 800 799 802 805 805 807 809 809 809 810 811 813 813 814 815 815 816
791 794 795 794 794 795 796 798 798 796 795 797 800 803 805 805 806 806 804 801 801 802 803 807 809 808 807 806 805 810 813 811 812 812 809 808 807 803 800 796 792 788 788 791 792 794 799 803 807 807 803 798 798 799 797 796 796 796 798 800 798 797 796 796 799 798 794 795 797 796 800 800 797 798 802 803 805 807 808 810 811 812 813 814 815 816 817 818
793 794 795 795 795 796 798 799 797 794 796 798 800 802 804 805 805 806 805 804 805 805 804 807 811 809 807 805 804 808 810 808 809 811 809 809 808 807 806 804 799 794 791 794 796 795 796 804 809 807 802 798 798 798 796 796 795 796 800 802 799 799 801 800 802 802 800 802 802 799 803 806 800 796 800 804 806 808 811 813 814 814 814 814 816 817 818 819
796 796 796 794 795 797 799 800 797 794 795 798 799 802 804 803 803 804 805 805 806 805 802 804 808 808 807 805 806 807 807 805 806 806 804 806 807 806 805 804 802 799 796 799 802 797 797 806 809 806 808 806 799 799 800 795 791 794 802 808 807 806 808 809 809 808 807 806 805 802 805 809 804 800 804 808 810 812 814 815 816 816 815 815 817 818 819 820
797 796 796 795 795 798 800 800 799 797 796 797 798 800 801 801 801 803 805 806 804 803 803 803 805 806 806 807 806 804 802 802 802 801 802 803 803 803 804 803 801 801 800 802 805 805 805 806 806 809 816 813 805 803 799 794 798 808 813 815 814 811 811 811 809 808 808 807 804 803 803 803 803 803 808 813 814 815 815 815 816 817 817 817 817 819 820 820
Wind_Speed
11 11 11 11 12 12 12 12 12 12 12 12 12 12 12 12 11 11 11 11 11 11 11 11 12 12 13 12 12 12 12 13 14 9 9 12 11 10 8 9 15 17 16 20 24 19 12 8 9 8 7 4 1 2 5 3 1 1 1 1 3 3 3 3 2 4 7 9 10 8 8 11 12 9 7 8 9 11 11 9 9 10 11 15 19 23 23 21
12 12 12 12 12 13 12 12 12 12 12 12 12 12 11 11 11 11 11 11 11 11 11 11 12 12 12 12 11 12 13 14 13 12 15 15 10 10 10 11 16 19 19 22 24 20 12 9 10 10 6 3 1 2 4 3 2 3 2 2 3 3 2 2 3 5 8 11 11 8 8 11 12 11 8 8 10 11 12 10 11 14 15 18 22 23 21 21
12 13 13 13 13 13 13 13 13 12 12 12 12 12 11 11 11 11 10 10 11 11 11 11 11 11 11 11 10 11 12 11 7 7 8 7 8 12 11 13 18 21 22 24 27 23 17 14 14 11 6 3 1 2 4 3 2 3 2 3 2 2 2 3 4 6 8 11 12 9 9 10 11 9 7 10 14 12 11 11 12 16 18 19 20 22 21 20
13 13 13 13 14 14 13 13 13 13 13 12 12 11 11 11 10 10 10 10 10 11 11 11 11 10 10 10 8 10 9 5 2 2 5 8 2 10 13 14 21 23 21 24 26 22 18 18 14 9 6 3 2 2 4 3 2 2 2 4 3 1 2 1 4 7 10 11 11 11 11 11 10 7 8 13 13 9 10 11 14 18 21 21 20 21 21 19
13 14 13 14 14 14 14 14 13 13 13 12 12 11 10 10 9 10 10 10 10 10 11 11 10 10 9 7 6 8 5 2 1 4 5 8 7 7 16 16 24 25 20 22 21 17 17 17 12 7 4 3 4 3 3 5 3 2 4 6 6 4 2 2 6 9 10 9 10 12 12 10 9 8 10 11 7 7 8 9 14 17 19 21 21 21 20 19
13 14 14 14 14 14 14 14 14 13 12 11 11 10 9 8 8 9 10 10 11 10 10 9 9 9 7 5 4 4 2 1 2 7 10 9 9 6 19 19 25 23 18 19 17 16 15 13 10 7 5 3 5 4 1 4 5 4 4 5 6 4 0 5 9 10 9 8 9 10 9 10 11 9 7 4 4 7 9 10 14 17 18 20 21 21 19 17
14 14 15 15 14 15 14 14 14 13 12 10 10 9 8 8 8 9 10 11 11 10 9 8 8 7 4 3 2 2 2 4 7 12 13 9 7 9 23 21 24 21 17 19 15 13 14 12 9 7 6 4 4 5 2 2 6 5 5 5 6 4 4 7 10 10 8 7 6 7 9 10 12 10 5 4 7 10 12 13 17 20 20 20 18 18 17 17
14 15 15 15 15 15 15 14 13 12 11 10 9 9 8 8 9 10 11 11 10 9 8 7 7 4 2 2 0 1 2 4 11 13 10 7 1 18 25 23 25 20 18 18 13 13 13 12 10 7 7 4 3 5 3 4 6 6 6 2 4 6 7 9 11 10 7 5 6 8 10 9 10 9 6 6 10 12 14 16 18 20 19 17 16 16 15 16
14 15 15 16 16 15 15 14 13 12 11 10 9 8 8 8 8 9 10 10 9 8 7 5 4 2 1 2 0 2 1 3 14 13 7 3 12 24 24 25 27 19 17 15 13 14 11 9 10 6 5 4 3 4 2 5 2 5 5 3 5 7 8 9 12 11 7 4 6 9 10 8 8 7 6 6 11 14 16 17 18 18 18 16 15 15 15 14
15 15 16 16 16 16 15 14 13 12 10 9 8 8 7 7 7 8 8 10 9 7 6 3 2 0 1 1 1 0 1 4 16 15 7 4 19 25 21 25 27 19 14 11 12 12 7 7 8 4 4 4 2 2 2 4 3 2 4 7 7 8 6 7 11 11 9 6 5 9 10 7 3 2 4 7 12 16 17 18 18 17 17 15 14 14 14 14
15 16 16 17 17 17 16 14 13 12 11 9 9 8 7 7 7 6 7 8 8 6 4 2 0 2 1 2 2 1 1 1 13 16 6 9 21 22 19 24 24 20 15 9 10 10 7 8 7 3 3 4 2 1 2 3 4 4 10 10 8 7 5 5 9 10 8 5 5 9 9 5 2 1 7 11 14 15 18 19 18 17 15 14 14 13 13 13
15 16 16 17 17 17 17 16 14 12 11 10 9 9 9 8 6 5 5 7 6 4 2 0 3 3 1 1 4 4 3 4 9 12 4 13 19 17 17 20 18 18 18 11 10 11 7 7 7 4 2 3 2 1 1 2 1 8 8 9 8 5 3 3 2 6 5 5 8 9 7 4 2 4 10 13 14 15 17 18 18 16 14 13 13 12 11 12
16 16 16 17 18 17 17 16 15 13 11 11 10 10 10 9 6 4 4 5 3 2 2 3 4 3 1 1 4 4 5 6 7 6 5 12 13 11 13 15 12 12 15 12 14 13 6 4 6 4 2 2 2 1 1 2 6 6 4 6 7 4 1 4 3 2 4 6 7 5 3 5 3 6 13 14 15 16 16 17 16 14 13 12 12 11 10 12
16 16 16 17 18 18 18 17 16 14 12 12 11 11 11 9 5 3 3 3 2 2 2 5 5 2 1 4 3 2 3 4 4 3 6 12 11 10 10 12 10 8 8 9 13 13 6 3 1 4 1 1 2 2 1 5 7 4 4 4 4 3 3 2 2 0 5 5 2 1 1 5 5 8 13 14 15 16 15 16 16 14 13 12 11 11 10 11
17 17 17 17 18 18 18 18 18 16 14 12 11 10 10 6 2 1 1 1 2 4 5 5 3 1 2 5 4 3 2 0 1 2 6 14 12 9 10 12 11 9 8 6 7 9 7 1 1 4 2 1 1 1 3 6 4 3 3 2 2 3 4 3 4 4 5 4 3 3 2 4 6 9 12 13 14 14 14 15 15 14 13 12 11 11 10 10
17 17 17 16 17 18 19 20 19 19 16 11 10 10 7 3 2 1 1 3 4 6 5 3 2 1 1 2 2 2 2 1 3 5 5 14 10 8 12 12 10 9 6 4 5 4 4 3 1 2 1 2 1 1 5 5 4 3 2 3 3 4 4 4 5 6 4 6 2 2 2 3 5 10 11 13 15 14 13 14 15 14 13 12 11 10 10 9
17 17 17 16 17 18 19 20 20 21 16 11 11 9 6 4 3 3 4 4 5 6 4 1 1 1 2 2 2 1 2 3 3 6 5 10 9 11 14 8 7 7 4 2 3 4 5 3 2 1 1 2 1 2 5 4 5 4 1 3 2 2 4 4 5 6 6 8 7 3 2 3 5 11 12 12 16 15 13 14 14 13 12 11 10 10 10 10
18 18 17 17 17 17 19 20 20 21 14 10 10 6 6 4 3 5 5 5 5 4 3 1 1 1 1 1 1 2 6 5 3 3 5 10 10 13 12 6 7 9 6 3 2 3 4 3 2 3 2 3 3 4 4 3 5 5 3 4 2 3 5 4 4 7 9 10 9 7 4 3 7 11 12 11 14 15 14 13 13 12 12 12 11 10 11 11
19 18 17 17 17 17 19 19 20 18 10 8 8 4 4 4 3 4 5 5 2 1 1 1 1 1 2 3 4 7 10 7 4 1 9 14 12 11 10 9 9 8 7 5 3 3 4 3 3 5 5 5 5 6 4 3 5 8 5 4 5 3 4 4 3 6 11 10 9 9 6 5 8 11 12 11 11 13 14 13 12 12 12 12 11 10 11 11
20 19 18 17 16 17 17 18 20 15 6 7 6 1 2 3 1 1 2 3 3 3 4 2 2 3 6 5 6 8 8 4 1 4 12 15 14 12 9 6 6 4 5 6 5 3 3 5 6 5 5 5 4 5 3 1 5 10 7 6 7 5 4 4 3 7 10 8 7 8 5 5 7 10 13 12 10 11 13 14 13 13 13 12 11 11 12 11
21 20 19 18 16 17 16 17 18 10 5 8 4 1 1 2 3 4 3 3 4 5 7 5 2 6 8 7 6 5 4 1 4 5 11 15 14 10 3 2 4 4 2 4 6 3 3 7 6 4 3 2 2 5 4 3 6 9 7 7 7 5 3 1 3 6 7 5 4 5 4 3 4 7 11 12 12 11 13 16 16 15 14 12 12 12 11 10
22 21 20 19 16 16 15 16 15 5 5 8 3 2 1 1 4 5 3 4 4 3 5 4 2 6 9 9 8 2 1 1 5 4 10 13 6 3 3 3 4 4 3 4 6 5 5 7 5 4 3 1 1 4 5 3 5 5 5 6 4 5 5 5 3 4 4 3 4 6 6 3 3 6 9 13 14 10 9 13 14 16 15 13 12 11 11 10
22 22 21 19 17 16 15 15 11 2 6 9 1 3 2 3 7 5 5 3 5 1 2 3 2 4 5 4 4 6 2 1 4 5 9 10 2 2 6 5 3 5 5 6 7 7 5 5 5 6 5 4 2 3 5 3 3 2 3 4 2 6 6 2 3 6 2 0 3 6 6 3 3 5 7 11 13 9 8 8 8 12 13 12 12 11 11 12
22 22 21 20 18 15 14 15 7 1 10 11 1 3 1 8 8 5 6 2 3 2 2 2 2 3 2 2 4 6 1 0 3 6 10 9 4 3 5 4 4 5 4 5 8 8 3 1 5 7 6 6 4 4 5 3 2 1 2 2 2 6 5 3 7 7 4 1 2 6 3 3 5 7 7 8 8 9 9 8 7 8 9 9 11 12 12 12
22 22 21 20 18 14 14 11 2 3 13 8 3 1 5 13 9 6 4 1 1 3 1 2 1 2 1 1 3 3 1 0 1 3 9 8 6 4 3 2 3 4 3 4 8 8 3 4 6 8 7 6 5 4 4 3 2 0 3 4 4 7 6 8 13 10 5 3 5 7 4 2 6 9 10 7 7 9 10 11 12 10 9 8 10 12 12 11
23 22 21 19 17 14 10 3 1 8 11 2 3 3 8 16 8 7 3 1 1 3 3 1 1 1 1 0 2 2 1 2 1 1 6 8 6 3 3 2 1 2 4 4 4 3 3 5 6 8 9 7 6 5 3 3 2 1 3 5 7 8 8 12 13 8 4 3 6 9 6 2 4 8 10 9 10 12 10 12 15 13 11 10 11 12 12 12
23 22 20 18 16 14 6 2 5 8 5 2 3 6 13 15 3 10 3 2 2 2 3 3 2 2 2 0 1 2 1 2 1 3 3 6 4 1 3 4 1 3 4 3 3 2 4 7 6 7 9 7 6 5 4 4 3 1 1 4 8 10 11 13 11 6 2 2 5 9 5 3 3 5 8 10 11 13 13 14 14 13 13 12 11 12 12 12
23 22 19 16 14 13 7 5 6 5 3 4 5 9 15 8 7 7 1 1 2 1 1 2 2 2 3 1 1 1 1 1 1 2 1 4 3 1 3 6 5 6 4 4 6 2 3 7 8 9 7 6 6 4 6 6 2 0 0 3 7 8 9 11 7 4 2 2 4 7 5 3 4 2 6 10 11 13 16 17 15 13 15 14 12 12 13 12
23 21 18 14 13 11 7 6 6 4 4 4 7 12 9 3 7 2 0 2 2 1 1 2 3 2 3 2 2 2 1 1 1 2 1 3 2 1 2 4 4 6 3 2 5 2 1 3 6 8 6 5 5 3 7 8 2 0 3 7 7 7 7 6 4 3 3 3 4 8 9 5 3 3 6 9 11 14 16 15 13 12 14 15 14 12 12 11
23 19 16 13 11 7 5 7 6 3 3 6 10 10 1 5 2 0 2 2 2 1 1 2 3 3 3 1 2 2 1 1 2 2 1 2 2 3 2 1 2 4 3 1 2 1 1 0 2 4 4 4 4 4 5 7 6 6 8 9 9 8 6 4 1 2 3 3 2 8 12 6 3 3 8 9 7 10 13 13 12 12 12 14 14 12 12 11
22 17 13 11 9 5 3 3 2 2 5 9 10 5 2 1 1 2 3 2 2 2 2 2 3 3 2 2 3 3 1 1 3 1 2 1 2 3 1 1 2 3 2 2 2 0 1 2 2 2 3 3 4 4 2 2 5 7 7 8 7 5 4 3 2 1 3 2 1 5 11 8 5 3 6 8 5 6 12 14 15 14 13 13 14 13 12 11
20 14 11 10 8 8 6 3 3 6 9 9 6 1 2 0 2 2 2 2 2 3 2 2 3 3 3 1 3 4 1 2 3 1 2 1 2 2 0 0 1 2 2 2 2 1 3 4 2 2 4 4 5 5 3 1 4 5 6 8 6 4 3 2 2 2 4 1 3 3 8 7 7 4 2 8 9 8 11 13 15 15 15 14 15 14 12 11
17 10 7 7 8 9 7 5 5 7 8 5 1 1 1 2 2 1 2 2 2 3 2 2 3 4 3 1 3 3 1 2 3 1 2 1 2 3 2 2 1 1 1 1 2 2 4 3 3 4 4 6 8 6 4 4 5 7 7 8 6 5 5 4 3 1 3 2 2 5 7 4 5 2 1 5 10 10 10 12 14 15 15 13 14 15 12 11
13 6 4 5 5 5 4 3 3 5 5 2 1 1 2 3 1 1 2 2 2 2 2 2 4 4 2 2 3 2 2 4 4 2 2 1 2 3 3 3 2 0 1 2 2 3 4 3 5 8 5 7 11 9 5 6 6 7 6 5 5 5 4 4 4 4 2 2 4 7 6 3 2 2 1 3 6 8 10 10 12 13 12 10 11 13 13 12
9 3 1 1 2 1 2 1 1 3 3 1 2 2 3 2 1 1 1 2 2 3 2 1 3 3 2 2 3 2 2 3 4 4 5 4 2 2 2 2 2 1 1 2 1 1 3 3 3 4 2 9 13 8 5 6 6 5 4 5 5 4 4 2 2 2 2 3 4 5 3 2 1 1 1 2 3 7 10 11 12 13 11 10 9 11 11 11
5 3 3 3 3 3 3 2 1 2 2 1 4 3 2 0 1 1 0 2 2 3 3 1 2 3 2 2 2 3 3 2 2 3 4 4 2 3 2 2 1 1 1 2 1 1 2 2 1 1 2 9 12 10 9 7 4 4 5 6 2 0 3 3 2 2 1 3 3 3 4 1 1 2 1 1 3 7 10 12 13 13 13 12 9 9 9 9
5 4 6 7 4 3 4 3 2 2 1 2 4 3 0 1 1 2 1 2 2 2 2 1 1 2 2 1 2 3 3 2 2 1 2 2 2 3 4 3 0 1 3 2 2 1 2 4 1 3 7 6 4 7 8 4 4 5 6 6 4 1 1 1 2 3 2 4 2 3 6 3 2 2 2 3 5 8 10 12 13 13 14 13 10 8 8 8
4 4 5 9 6 4 5 3 3 3 2 3 3 2 1 1 1 2 1 1 1 0 2 1 1 1 1 1 1 3 2 0 1 1 2 1 1 1 3 2 1 1 3 2 2 1 2 4 1 3 6 3 3 5 5 2 2 1 4 8 5 3 3 2 2 3 4 3 2 3 4 4 4 3 2 5 6 8 10 11 12 14 15 13 10 9 8 8
3 3 3 9 4 6 5 1 3 3 3 3 2 1 1 2 2 2 1 0 1 1 2 1 1 1 1 1 1 2 3 1 1 0 2 1 1 1 2 2 2 2 1 2 1 1 2 3 1 2 1 3 5 6 7 6 3 1 4 8 3 2 4 3 2 2 3 3 3 3 3 3 4 1 1 5 7 7 10 10 11 14 15 13 11 10 9 8
2 1 1 8 2 7 3 2 3 3 3 2 0 0 1 2 2 1 0 1 1 1 1 0 1 1 1 1 0 1 3 2 2 1 1 1 1 1 4 3 3 3 1 2 1 0 2 2 1 1 1 4 6 5 6 9 9 5 6 8 4 1 2 2 2 0 1 3 3 4 4 2 1 1 1 4 6 7 9 9 10 12 14 13 12 10 9 8
2 1 1 6 1 5 1 3 3 2 1 1 0 1 1 2 3 3 2 1 0 1 0 1 1 1 1 1 1 1 2 2 2 1 2 1 0 0 3 3 3 3 1 2 1 1 1 1 2 1 1 5 3 1 3 6 8 8 7 8 8 5 4 5 4 1 1 1 2 3 4 1 2 1 1 4 6 6 8 9 9 11 13 13 11 10 9 8
1 1 2 6 1 4 1 2 1 1 1 1 0 2 2 2 2 4 4 3 2 1 1 2 1 1 1 1 1 2 2 3 3 1 1 2 2 1 3 4 3 2 1 0 1 1 0 1 2 2 1 2 1 2 1 2 2 3 3 5 7 6 6 8 6 4 3 1 0 1 3 0 2 1 2 4 5 6 7 9 9 9 11 11 10 9 7 7
1 1 3 5 1 2 2 1 0 1 0 1 1 1 1 2 1 3 4 4 3 2 2 2 1 2 2 2 1 1 2 2 3 2 1 1 2 1 5 7 4 1 2 2 0 1 1 0 1 1 0 1 0 2 3 1 2 3 2 2 2 3 3 3 3 4 6 4 3 3 3 1 2 0 2 5 6 6 6 8 9 8 8 9 10 9 7 7
1 1 2 4 0 1 1 1 1 0 0 0 1 1 1 1 2 3 4 4 3 2 2 2 1 2 3 2 1 2 1 1 2 2 1 0 2 2 3 7 5 1 3 3 2 1 0 1 1 2 3 4 4 4 5 2 1 2 2 4 2 1 3 4 3 3 5 4 3 5 5 2 3 2 4 7 8 8 7 7 8 8 8 8 9 9 9 8
1 1 1 4 3 2 1 1 0 1 1 1 2 1 1 1 1 2 2 3 3 2 1 1 1 1 2 2 2 3 4 2 2 1 1 1 2 2 2 6 6 3 3 3 4 1 0 1 2 1 3 4 4 4 3 1 2 1 2 5 4 1 2 3 3 3 5 3 2 5 3 2 3 5 7 8 10 10 8 8 8 8 8 8 8 8 8 8
0 1 0 2 3 3 1 1 1 1 1 2 2 0 1 1 1 0 1 2 3 2 2 2 2 1 2 3 2 4 6 5 2 2 1 2 2 2 2 4 5 5 4 4 3 1 1 2 4 3 4 3 1 1 2 2 1 2 4 7 5 3 2 0 3 4 4 5 4 4 2 4 7 9 10 10 10 10 9 8 8 8 8 8 8 8 8 8
1 1 1 0 1 1 1 1 2 0 1 2 2 0 1 0 1 1 1 2 2 2 2 2 3 2 1 2 2 3 4 4 3 3 2 3 2 3 3 3 3 7 6 4 4 2 2 3 4 5 7 5 2 0 1 2 6 7 7 8 7 5 2 2 3 3 4 6 5 3 6 7 9 12 12 11 10 9 9 9 9 9 9 8 8 9 9 9
1 1 1 1 1 1 1 1 2 1 2 1 1 0 1 1 2 1 1 1 1 2 1 2 5 5 2 0 2 2 2 2 3 2 2 2 2 3 3 1 2 7 5 2 4 2 1 2 2 2 4 5 5 4 2 4 8 10 12 12 10 8 4 1 1 2 2 3 2 4 9 7 7 12 13 10 10 10 10 10 9 9 9 10 10 10 10 10
1 2 1 1 0 1 0 1 0 2 2 1 1 1 1 2 2 1 1 1 2 3 2 2 3 4 2 1 2 1 0 1 2 2 1 2 2 3 3 2 2 5 4 3 3 2 0 1 1 1 1 4 7 6 3 4 8 13 15 14 12 10 8 6 4 4 3 2 2 4 8 4 4 11 12 9 9 10 9 9 9 10 11 11 11 11 11 10
1 1 0 1 1 1 1 1 1 2 2 1 1 2 1 2 2 2 1 1 1 2 1 3 2 2 3 3 3 3 1 1 2 1 1 0 1 2 2 1 2 4 5 3 2 2 1 1 1 1 2 4 8 7 3 3 7 14 17 16 15 12 10 9 6 5 5 3 2 6 8 5 4 9 11 9 9 10 10 10 10 10 10 11 12 11 10 9
2 0 1 0 1 1 1 1 1 1 1 0 2 2 2 2 2 3 1 1 0 0 0 4 4 1 2 4 4 2 2 3 2 2 2 1 1 2 1 1 3 3 4 3 2 3 2 1 1 1 1 3 7 9 6 1 2 11 16 16 15 13 8 7 7 6 5 3 4 7 6 3 5 9 10 9 9 11 12 11 9 9 9 11 12 11 9 7
2 1 0 1 0 1 1 1 1 1 2 1 2 2 2 2 2 2 2 1 1 0 0 3 4 1 1 1 2 1 2 4 3 3 2 1 1 2 1 1 2 3 3 2 1 2 2 1 2 1 1 2 7 9 7 2 1 6 11 10 9 9 7 4 5 7 6 4 1 2 3 3 9 11 10 10 10 10 10 9 7 8 8 9 11 11 9 8
Wind_Direction
347 346 343 339 337 336 336 335 332 331 330 328 327 325 325 325 324 322 320 319 320 320 322 324 324 326 325 326 327 323 324 318 313 301 253 265 273 242 230 191 175 167 160 161 156 140 129 128 120 135 147 146 158 159 176 196 202 234 295 311 318 322 328 330 216 162 135 144 147 152 149 136 132 118 118 114 101 113 109 95 95 93 100 111 120 131 138 144
345 343 340 337 336 335 334 333 331 329 327 326 324 322 321 321 320 320 319 319 319 319 322 322 322 325 323 326 327 325 328 321 307 283 266 273 274 242 220 190 176 172 163 160 159 149 142 148 143 146 147 141 133 159 177 184 202 236 287 288 305 318 324 313 231 158 144 150 142 145 144 136 134 130 141 134 124 126 116 114 115 110 111 117 127 134 140 146
344 341 338 337 336 334 334 332 329 327 325 323 321 321 320 319 319 319 319 319 320 319 318 318 320 322 323 325 325 327 327 320 296 271 298 309 252 233 217 189 179 179 174 171 171 166 157 150 147 148 141 137 150 177 189 184 202 227 250 275 309 299 298 301 214 168 145 144 137 138 134 130 132 136 154 143 138 142 139 141 137 133 134 134 138 140 145 150
345 343 342 340 336 334 334 332 329 326 323 321 320 320 318 320 320 317 318 318 318 317 316 317 319 319 323 325 322 330 327 304 272 299 4 14 357 200 198 180 177 184 179 175 176 171 154 140 143 150 136 133 157 184 200 190 189 204 224 282 325 305 315 342 175 150 139 139 132 133 129 128 133 140 150 141 143 155 158 157 150 147 145 144 146 146 150 153
350 350 349 344 339 336 334 332 330 326 323 322 321 321 320 322 321 318 316 317 317 315 316 316 318 319 323 330 334 340 331 257 104 14 354 350 354 183 182 176 179 182 176 171 165 155 143 137 145 153 143 144 158 177 212 193 205 258 244 274 299 290 322 104 143 132 133 128 119 131 132 134 134 137 151 147 147 155 158 157 149 148 147 148 149 149 153 154
357 358 355 348 342 340 338 335 331 329 329 327 326 325 323 320 319 319 317 317 317 314 317 317 319 318 325 350 357 354 317 280 4 341 334 329 327 190 170 176 179 175 172 163 149 141 139 146 158 152 158 158 160 184 214 177 204 260 256 287 321 311 227 138 140 126 125 124 124 135 132 136 134 131 147 135 94 121 134 142 144 145 145 146 147 151 155 156
360 1 359 353 348 346 345 343 339 337 336 333 332 330 327 323 320 321 319 319 320 317 317 317 319 316 338 21 16 13 270 287 328 329 327 325 315 174 165 174 173 166 167 158 146 149 144 155 167 148 160 153 170 206 276 190 203 245 273 312 2 50 127 146 137 120 116 123 122 126 131 137 137 135 130 81 96 118 126 133 141 143 143 145 149 154 157 156
359 0 358 355 352 350 348 348 348 347 346 342 340 337 332 329 325 322 322 323 323 320 316 315 323 317 358 41 34 339 245 291 337 339 335 338 210 165 163 168 166 159 163 159 145 150 147 157 162 149 165 156 162 188 277 264 203 231 266 340 49 83 123 137 127 121 115 120 121 116 123 126 124 121 98 97 119 124 128 135 143 144 144 148 153 157 157 157
355 356 355 356 355 354 351 351 353 354 354 349 344 338 331 328 323 321 322 326 327 322 319 316 325 332 48 30 253 308 223 3 2 3 3 10 162 164 164 166 165 157 159 159 147 150 152 163 165 157 169 165 150 143 238 262 206 226 239 93 95 105 123 128 123 135 137 126 125 111 109 112 111 103 86 111 131 128 133 141 146 148 147 152 157 158 159 159
354 354 355 357 358 357 355 355 358 359 356 351 342 332 325 323 315 316 320 326 330 326 324 323 329 43 84 315 211 271 176 29 14 16 21 139 159 160 161 165 167 161 151 155 159 158 158 171 163 145 152 149 154 124 177 259 325 222 163 99 100 100 108 127 128 140 140 125 119 116 118 112 95 103 116 135 139 135 140 145 149 153 150 155 159 160 162 162
357 357 357 358 359 359 359 0 1 1 357 348 335 321 313 313 306 308 318 325 332 337 335 319 254 160 161 313 217 201 204 353 7 12 33 150 156 157 158 161 168 164 147 147 174 172 163 169 160 141 149 139 174 170 129 302 310 155 128 100 87 79 81 108 130 142 137 121 95 102 112 107 50 79 134 146 148 143 145 149 153 156 153 157 160 162 165 163
1 1 359 358 359 360 1 1 2 3 358 347 334 321 311 311 308 305 317 329 341 7 15 89 140 139 127 301 224 233 272 282 337 0 64 148 152 157 160 158 166 169 157 152 178 184 174 173 179 170 141 144 173 192 109 322 174 140 120 103 96 91 73 33 123 148 136 125 114 104 107 130 107 104 136 149 152 148 148 152 156 159 158 160 163 164 167 166
3 3 1 359 358 359 0 1 3 4 357 349 341 328 319 317 312 308 318 333 359 39 43 123 133 110 87 246 238 254 287 285 307 346 123 150 145 145 164 164 160 167 169 170 176 179 162 161 193 171 126 151 138 331 275 168 152 136 86 105 115 120 136 326 307 145 131 133 125 121 142 161 136 120 145 154 153 152 152 156 159 161 163 163 166 167 170 171
4 3 2 359 357 356 358 360 3 5 360 352 344 333 326 321 313 314 325 332 22 73 88 120 130 93 353 262 268 310 307 279 289 306 163 162 141 124 151 167 155 136 147 171 180 183 171 119 144 152 130 44 97 316 226 143 159 143 93 115 128 151 179 211 277 217 147 142 55 357 169 169 151 139 154 159 157 155 154 161 164 164 166 165 168 169 171 177
4 3 0 360 357 353 354 358 2 4 0 353 346 339 331 326 322 306 334 15 78 105 106 106 103 57 289 274 281 318 321 263 345 340 182 173 151 126 146 162 161 142 120 118 156 187 200 195 152 166 159 97 140 312 116 135 165 159 137 143 144 165 167 158 186 218 175 151 326 323 132 156 154 150 159 163 163 159 155 163 168 167 168 167 168 170 173 177
3 1 360 359 356 352 352 355 0 1 359 360 358 354 355 16 76 107 87 77 111 125 121 105 56 4 265 315 345 342 359 13 22 34 157 178 169 140 143 145 144 154 148 90 93 139 172 203 222 171 149 151 181 139 130 140 161 192 206 147 157 175 160 155 181 214 195 155 201 287 131 140 153 156 161 167 170 166 159 164 172 170 167 170 169 171 173 175
2 0 358 357 355 352 351 353 359 359 358 9 10 13 31 58 91 86 88 92 118 137 139 144 32 312 260 301 349 44 3 343 19 48 117 177 179 144 134 125 118 134 139 90 77 107 132 174 202 150 144 152 144 160 160 166 175 194 206 125 173 217 167 161 170 201 206 172 181 199 145 127 145 156 161 170 175 173 169 168 174 174 170 173 173 173 175 177
360 358 357 356 353 351 352 353 356 357 359 13 18 34 47 47 77 76 94 108 123 155 167 191 236 254 232 295 334 308 305 308 337 20 116 149 158 142 130 119 122 124 122 123 108 125 143 175 204 167 160 156 177 200 173 153 163 172 174 134 148 235 202 188 157 176 189 183 183 183 173 139 143 157 163 171 177 179 180 176 177 180 177 178 178 178 177 180
357 356 355 354 352 351 351 351 352 355 2 15 18 57 52 35 84 92 114 125 131 232 270 246 230 279 302 304 298 303 306 303 304 286 138 143 144 126 111 113 119 124 142 155 152 168 162 153 182 186 185 182 191 201 163 104 137 159 169 141 141 199 222 210 154 158 176 183 189 189 185 162 155 164 169 171 174 181 184 181 183 185 184 185 183 182 180 183
353 353 353 352 352 350 348 347 348 353 15 16 8 77 39 6 12 60 131 176 216 253 280 255 182 257 285 293 295 313 319 313 355 136 149 153 142 114 94 103 108 122 155 156 150 170 183 173 188 190 175 174 180 188 171 117 156 161 159 144 159 197 235 227 168 154 176 185 192 200 192 163 166 173 174 171 167 177 185 185 188 190 190 191 188 186 184 186
350 350 349 349 350 349 346 343 345 355 36 16 5 84 24 2 351 336 321 280 229 220 249 250 199 258 271 274 282 326 346 29 75 118 154 154 146 130 102 115 134 147 159 132 128 137 196 196 192 166 139 145 168 180 174 127 144 160 168 164 170 190 202 54 101 149 181 189 179 201 207 171 178 183 176 173 173 180 188 188 191 193 193 194 192 190 186 185
347 347 345 345 347 347 343 341 345 4 29 12 27 119 158 176 322 288 272 305 273 211 232 252 272 267 266 267 260 235 126 137 98 113 153 152 155 154 143 161 161 144 130 139 136 138 189 206 180 135 132 153 124 172 178 130 127 154 179 180 178 169 137 62 67 166 177 197 178 188 206 187 183 200 182 181 187 188 189 190 192 191 191 193 192 191 187 184
346 344 341 341 343 344 340 339 344 355 2 358 17 154 170 340 332 234 193 299 289 249 208 229 242 251 269 279 216 174 169 170 135 152 171 162 136 146 153 156 152 133 147 174 167 156 183 213 173 136 149 185 176 148 163 136 116 138 165 178 179 167 159 105 204 194 137 229 185 173 203 202 187 208 194 193 196 189 189 194 195 194 193 193 192 192 189 187
345 342 339 337 338 341 338 337 337 317 344 339 260 159 282 342 347 188 182 301 284 281 225 204 237 235 273 318 165 169 178 194 163 169 179 166 112 148 164 142 142 145 160 187 179 168 146 110 146 139 154 193 201 151 154 146 127 139 166 171 151 169 176 126 160 168 124 112 149 144 196 239 202 210 204 196 193 188 190 190 192 196 194 190 193 196 195 192
345 341 337 334 333 337 337 335 322 319 335 327 200 169 330 337 338 189 193 322 261 295 223 157 231 210 252 266 166 196 246 152 222 164 175 167 132 146 152 139 171 160 156 168 178 178 131 106 140 138 148 187 202 179 174 166 127 81 194 195 192 182 161 124 143 155 152 189 183 169 209 241 192 211 212 190 187 194 191 193 196 191 184 187 195 199 198 196
344 340 334 331 328 331 338 336 252 323 329 306 194 293 320 328 317 180 182 335 75 343 335 5 298 114 14 166 160 224 190 104 2 123 171 170 143 134 144 154 222 155 162 156 172 190 130 138 151 146 153 171 197 203 189 169 128 117 209 189 184 178 151 141 155 169 181 187 184 194 226 275 185 212 210 189 195 201 192 199 203 194 189 191 197 201 198 196
341 338 332 327 324 328 335 272 298 317 312 246 263 298 315 320 262 169 196 332 75 7 309 317 336 24 9 37 181 243 159 64 57 104 163 181 158 69 160 168 175 145 157 158 177 198 131 142 143 144 152 164 193 200 173 168 139 101 252 165 168 173 161 158 165 183 191 108 160 191 213 269 242 213 191 186 199 204 199 203 203 198 198 196 196 199 197 197
339 336 328 323 322 324 317 285 292 288 264 269 281 307 319 314 163 165 258 31 50 330 262 312 315 329 326 312 25 329 44 5 131 103 69 175 163 317 184 186 184 146 144 192 186 143 138 167 158 151 156 171 190 178 161 168 147 358 271 136 161 166 158 162 167 174 170 155 189 187 182 238 247 175 169 184 198 208 207 206 202 197 200 198 197 197 196 197
338 334 324 318 318 318 307 283 271 261 267 277 300 319 330 126 145 165 335 94 12 322 181 305 320 337 326 336 33 29 355 333 90 67 34 146 137 350 168 176 162 135 120 225 200 139 138 199 167 163 175 189 185 161 166 169 154 114 116 98 108 120 123 144 168 151 155 224 231 185 183 226 238 157 173 187 202 213 209 206 202 196 199 199 196 194 192 192
336 331 319 311 314 314 304 284 266 269 291 296 317 328 29 131 140 336 49 36 336 299 214 310 334 322 311 2 39 14 341 354 20 40 99 117 65 47 76 111 121 129 100 12 218 145 57 14 158 177 189 187 177 166 168 162 141 134 121 101 97 104 105 98 90 122 178 238 244 179 186 215 251 170 177 191 209 213 205 204 201 196 201 201 197 193 190 188
335 327 310 304 304 289 283 285 272 313 310 308 325 342 137 121 15 88 46 7 307 310 327 347 348 333 335 69 61 11 18 35 3 34 134 137 122 96 111 161 128 142 140 167 192 37 328 195 164 192 186 151 158 160 140 134 149 147 138 129 117 108 110 90 61 168 220 228 55 177 186 196 235 213 178 200 217 205 200 201 198 193 195 199 200 196 191 190
333 321 298 290 282 260 244 252 297 310 307 312 337 34 163 312 45 60 349 330 330 339 351 334 341 1 342 29 51 10 8 57 10 41 98 111 143 112 40 221 150 183 191 194 177 182 237 212 164 193 187 167 175 170 137 147 196 187 167 162 155 144 148 156 168 198 227 213 56 171 182 192 243 264 174 202 211 204 198 198 194 188 188 194 197 194 190 190
333 318 290 276 265 256 252 266 291 300 303 313 357 86 107 77 62 21 296 322 357 353 359 318 330 354 327 343 41 7 33 58 1 52 74 27 92 89 65 60 105 202 150 187 200 204 218 210 167 185 192 183 191 196 178 167 191 193 184 183 179 164 163 168 169 212 236 200 107 152 174 213 251 245 98 212 221 217 206 201 192 183 184 189 192 192 187 186
340 326 294 267 252 247 245 255 277 294 303 313 126 90 72 80 55 277 284 301 303 319 355 333 326 348 21 41 22 352 56 51 14 38 73 63 83 82 76 65 60 53 90 183 205 206 220 227 186 186 181 174 190 212 199 159 175 191 193 205 196 172 170 172 180 202 194 136 128 152 176 243 234 130 19 264 243 228 214 204 189 178 175 177 188 193 186 185
353 360 19 202 199 165 162 181 273 291 298 71 96 50 76 90 289 242 285 290 278 312 337 2 340 356 56 44 11 9 45 45 23 32 53 62 61 37 33 28 20 42 165 199 185 184 241 268 207 190 167 170 183 196 167 151 172 180 184 214 216 189 165 141 179 188 131 120 146 172 210 283 230 119 21 284 236 208 203 194 181 172 162 160 182 192 187 186
18 70 81 88 90 102 108 87 39 286 285 84 78 58 70 89 264 194 235 305 313 328 313 329 6 10 38 31 28 31 25 32 31 33 42 36 15 15 354 316 351 359 234 215 195 168 247 273 161 115 205 190 183 170 167 186 181 146 184 202 199 182 150 134 138 105 136 203 164 188 236 262 206 194 100 106 166 173 185 185 176 167 156 158 179 188 184 181
39 101 71 41 40 107 114 87 28 316 337 71 76 72 332 273 211 194 242 305 303 341 324 332 17 358 13 31 34 20 10 26 12 5 49 3 345 18 345 311 227 320 314 267 239 187 266 273 202 174 208 211 183 158 168 195 160 147 190 176 111 29 304 117 179 148 189 222 172 202 241 252 218 215 108 121 150 161 176 179 169 161 159 166 177 176 170 164
25 124 70 20 15 128 127 86 7 352 62 67 58 85 270 301 231 224 255 296 249 51 39 44 19 349 354 22 27 353 317 126 359 347 104 31 336 75 338 328 156 320 314 237 220 113 237 268 270 186 200 166 116 157 164 185 207 177 174 160 144 201 196 154 200 177 172 210 195 199 243 257 225 224 137 149 155 159 171 174 167 165 168 169 168 166 165 155
19 140 56 4 16 143 138 43 4 17 72 59 45 93 280 283 266 240 228 245 234 38 33 24 349 35 67 350 351 343 347 103 128 59 92 20 301 133 13 346 222 318 359 193 215 100 216 269 202 139 125 121 150 185 190 180 193 339 153 170 190 248 186 166 183 185 175 193 208 194 217 235 215 263 19 161 155 157 168 173 175 175 174 170 165 165 165 155
25 123 34 359 43 152 150 7 24 37 66 64 14 272 319 287 290 317 260 242 251 14 30 119 320 356 44 359 323 356 11 61 107 109 107 344 263 112 25 355 282 326 50 176 304 126 187 263 238 107 90 182 178 192 203 180 174 190 178 175 184 169 171 172 137 114 201 184 195 214 225 219 147 28 340 160 154 164 169 170 178 182 179 174 169 169 162 159
23 96 30 358 43 168 172 26 49 39 79 93 238 246 303 316 325 343 337 280 235 28 28 137 94 13 354 8 37 14 19 50 51 73 117 58 23 125 32 11 277 299 67 161 325 354 181 222 257 303 184 192 170 82 231 202 183 190 191 185 184 165 157 184 179 148 244 206 192 230 236 187 88 17 249 165 157 164 164 168 176 181 180 173 169 173 167 165
42 97 7 344 236 182 13 45 64 24 146 67 28 247 297 360 349 335 344 3 40 49 37 78 92 43 18 9 22 22 39 48 27 36 97 62 49 344 352 343 263 248 8 295 265 327 279 206 250 273 251 220 314 20 336 270 169 157 183 190 181 171 178 197 196 160 163 212 70 260 259 198 71 339 204 160 155 157 160 167 169 172 176 169 163 167 156 146
65 106 4 351 206 192 16 74 161 359 172 358 4 244 306 22 350 334 360 11 13 25 40 34 18 43 39 6 354 41 41 37 26 20 15 44 51 359 325 328 306 204 37 349 279 120 188 270 284 228 159 41 69 99 96 93 137 125 71 46 176 204 196 198 195 162 175 187 165 202 237 162 103 81 147 143 149 154 152 156 156 155 161 160 161 166 154 137
34 205 356 6 90 219 342 124 169 19 217 358 53 32 15 48 25 15 23 15 9 22 43 35 17 31 27 11 44 58 24 29 54 30 342 310 31 357 323 332 331 37 53 343 317 20 119 311 315 175 141 127 138 134 128 115 55 98 63 16 325 239 120 120 104 150 189 189 175 215 225 137 107 144 148 146 155 156 144 145 150 144 139 144 153 164 161 150
359 175 301 2 41 67 60 140 152 161 146 75 82 34 10 87 53 29 41 31 24 13 27 58 15 2 25 45 62 49 30 29 67 63 322 306 325 313 342 342 341 35 47 322 307 333 37 356 335 177 139 139 141 127 135 101 1 4 25 7 354 62 141 143 131 175 202 166 164 226 225 107 136 169 164 160 162 156 145 141 141 134 134 136 137 146 146 140
335 153 271 357 46 55 74 67 20 166 155 123 126 51 17 96 41 320 128 59 33 17 41 40 335 318 45 48 50 44 31 21 45 83 22 326 311 310 332 333 345 17 5 331 349 17 157 68 27 44 72 79 93 52 316 304 19 30 10 11 12 358 313 233 157 183 181 149 184 227 163 142 180 182 173 168 164 154 146 143 138 131 130 126 124 126 123 120
10 151 65 55 104 53 99 81 23 184 176 156 159 136 53 80 342 336 54 63 39 24 53 46 16 19 42 39 68 56 26 15 31 48 3 323 296 297 304 286 341 358 346 336 2 9 143 69 21 44 74 68 51 28 313 43 70 54 30 26 21 6 326 222 190 166 143 162 198 189 156 174 187 181 178 174 163 151 147 149 143 137 132 126 125 123 120 121
3 147 75 327 226 144 128 44 9 94 122 122 146 97 63 55 38 36 33 64 52 15 27 52 27 24 6 338 110 68 5 29 37 11 334 336 323 324 337 317 354 2 3 4 4 6 117 77 3 24 70 66 58 61 73 86 77 59 45 37 26 21 32 90 94 53 113 198 245 163 171 185 175 171 175 170 158 150 148 149 142 137 133 131 133 130 129 133
20 116 110 333 293 163 99 350 14 123 105 82 93 93 116 107 93 81 327 355 48 17 21 75 21 7 11 48 113 92 6 107 69 23 327 345 348 357 9 7 348 2 19 46 33 22 185 129 85 307 359 50 53 59 94 106 75 56 46 35 29 35 43 56 69 41 13 341 345 149 156 131 134 167 167 155 152 148 144 144 141 141 140 137 137 135 134 138
2 75 42 17 82 85 41 15 166 140 88 33 90 104 126 128 128 158 296 359 76 24 32 118 110 354 21 48 79 99 115 164 100 41 317 340 20 10 14 350 306 341 14 43 29 351 304 191 98 312 313 25 31 30 50 98 71 55 43 29 25 29 30 34 34 6 354 14 77 125 126 95 121 159 150 138 142 143 142 142 141 143 144 140 138 136 134 136
352 314 323 169 115 22 3 52 96 139 131 117 151 152 161 156 150 150 107 7 169 183 118 148 155 202 16 50 61 84 187 208 208 302 297 280 15 350 2 342 287 318 11 34 357 347 350 160 119 27 322 359 3 1 359 314 86 49 34 21 16 20 23 27 23 7 356 19 91 118 118 118 147 145 135 130 135 140 143 143 144 148 148 146 143 137 133 133
349 194 310 226 151 10 5 96 57 165 170 151 145 163 162 150 159 152 115 83 247 185 69 173 162 142 14 64 39 359 247 232 250 296 284 193 115 81 93 55 32 22 20 24 11 1 4 151 135 114 177 313 336 343 351 349 95 39 21 2 0 16 23 39 36 20 2 355 28 85 60 130 153 144 134 137 140 140 144 145 149 150 145 143 142 137 136 137